Location: Unspecified
(0.0000°N, 0.0000°E)
Time: 12:41:16
(UTC+00:00)

AO-7 - Visible Passes

Search period start: 17 June 2019 00:00
Search period end: 27 June 2019 00:00
Orbit: 1440 x 1459 km, 101.7° (Epoch: 17 June)

Date Brightness Start Highest point End Pass type
(mag) Time Alt. Az. Time Alt. Az. Time Alt. Az.
17 Jun ? 03:07:15 10° NNE 03:15:23 80° E 03:15:23 80° E visible
17 Jun ? 05:05:32 10° NW 05:07:53 11° WNW 05:10:13 10° W visible
18 Jun ? 02:09:15 10° NE 02:14:20 26° E 02:14:20 26° E visible
18 Jun ? 04:00:41 10° N 04:08:20 41° WNW 04:09:15 40° W visible
19 Jun ? 03:00:20 10° NNE 03:08:13 70° E 03:08:13 70° E visible
19 Jun ? 04:57:10 10° NW 05:00:56 14° WNW 05:03:08 12° W visible
20 Jun ? 02:02:44 10° ENE 02:07:11 22° E 02:07:11 22° E visible
20 Jun ? 03:53:30 10° N 04:01:22 46° WNW 04:02:05 46° W visible
21 Jun ? 02:53:26 10° NNE 03:01:03 62° E 03:01:03 62° E visible
21 Jun ? 04:49:17 10° NW 04:53:59 16° WNW 04:55:58 15° W visible
22 Jun ? 01:56:19 10° ENE 02:00:00 19° E 02:00:00 19° E visible
22 Jun ? 03:46:22 10° N 03:54:23 53° WNW 03:54:55 52° W visible
23 Jun ? 02:46:35 10° NNE 02:53:53 54° E 02:53:53 54° E visible
23 Jun ? 04:41:37 10° NNW 04:47:03 19° WNW 04:48:47 18° W visible
24 Jun ? 01:50:01 10° ENE 01:52:50 16° E 01:52:50 16° E visible
24 Jun ? 03:39:15 10° N 03:47:25 60° WNW 03:47:45 60° W visible
25 Jun ? 02:39:46 10° NNE 02:46:42 47° E 02:46:42 47° E visible
25 Jun ? 04:34:05 10° NNW 04:40:05 22° WNW 04:41:37 21° W visible
26 Jun ? 01:43:54 10° ENE 01:45:39 13° E 01:45:39 13° E visible
26 Jun ? 03:32:11 10° N 03:40:27 68° WNW 03:40:34 68° W visible
